Regional Weather Roundup
Issued by NWS

Home | Current Version | Previous Version | Graphics & Text | Print | Product List | Glossary On
Versions: 1 2 3 4 5 6 7 8 9 10 11 12 13 14 15 16 17 18 19 20 21 22 23 24 25 26 27 28 29 30 31 32 33 34 35 36 37 38 39 40 41 42 43 44 45 46 47 48 49 50
000
ASUS44 KMEG 161510
RWRTN
TENNESSEE HOURLY STATE WEATHER ROUNDUP
NATIONAL WEATHER SERVICE MEMPHIS TN
900 AM CST SAT DEC 16 2017

TNZ002-004-019-021-049-052-054-088>092-161600-
WEST TENNESSEE

CITY           SKY/WX    TMP DP  RH WIND       PRES   REMARKS
MEMPHIS INTL   MOSUNNY   41  29  62 S10       30.24R
NWS MEMPHIS      N/A     39 N/A N/A MISG        N/A
JACKSON        CLOUDY    41  30  65 S8        30.24R
DYERSBURG      CLOUDY    39  29  67 S8        30.23R WCI  33
SOMERVILLE     SUNNY     41  30  65 S14       30.23R
COVINGTON      SUNNY     41  30  65 S12       30.23R
UNION CITY     SUNNY     37  28  70 SW13      30.20R WCI  29
BOLIVAR        SUNNY     39  28  65 S7        30.25R WCI  34
PARIS          SUNNY     37  28  70 SW12      30.20R WCI  30
HUNTINGDON     SUNNY     37  28  70 S10       30.21S WCI  30
LEXINGTON      SUNNY     37  28  70 S9        30.26R WCI  31
SELMER         SUNNY     36  27  69 VRB6      30.26R WCI  31
SAVANNAH       SUNNY     39  28  65 S9        30.27R WCI  33
$$

TNZ008-025-027-028-033-062-065-066-161600-
NORTH MIDDLE TENNESSEE

CITY           SKY/WX    TMP DP  RH WIND       PRES   REMARKS
NASHVILLE      CLOUDY    38  26  62 SW12      30.26R WCI  30
PORTLAND       SUNNY     36  28  75 S14       30.21R WCI  27
CLARKSVILLE    SUNNY     38  26  62 SW14      30.21R WCI  30
SMYRNA         CLOUDY    35  27  72 S9        30.27R WCI  28
COOKEVILLE     SUNNY     34  28  80 S8        30.25R WCI  27
GALLATIN       SUNNY     36  27  69 SW5       30.28R WCI  32
CROSSVILLE     CLOUDY    33  24  69 VRB3      30.23R
$$

TNZ061-075-076-078-094-096-097-161600-
SOUTH MIDDLE TENNESSEE

CITY           SKY/WX    TMP DP  RH WIND       PRES   REMARKS
FAYETTEVILLE   SUNNY     34  27  75 S6        30.28R WCI  29
TULLAHOMA      SUNNY     34  27  75 S6        30.27R WCI  29
WINCHESTER     SUNNY     32  27  80 E6        30.29R WCI  26
MCMINNVILLE    SUNNY     36  28  75 SW5G12    30.27R WCI  32
COLUMBIA       SUNNY     37  28  70 SW7       30.26R WCI  32
SHELBYVILLE    SUNNY     36  28  75 S8        30.28R WCI  29
$$

TNZ017-018-042-046-047-161600-
NORTHEAST TENNESSEE

CITY           SKY/WX    TMP DP  RH WIND       PRES   REMARKS
TRI CITIES     SUNNY     31  25  78 E3        30.26R
ELIZABETHTON   SUNNY     32  23  69 CALM      30.26R
$$

TNZ012-013-036-069-073-074-161600-
CENTRAL EAST TENNESSEE

CITY           SKY/WX    TMP DP  RH WIND       PRES   REMARKS
KNOXVILLE      CLOUDY    29  27  92 CALM      30.29R
OAK RIDGE      SUNNY     32  25  75 CALM      30.30R
DOWNTOWN KNOXV SUNNY     32  28  86 CALM      30.31R
GATLINBURG     SUNNY     30  23  74 CALM      30.29R
MORRISTOWN     SUNNY     34  25  69 VRB3      30.26R
JACKSBORO      SUNNY     30  27  86 CALM      30.30S
$$

TNZ083-085-099-161600-
SOUTHEAST TENNESSEE

CITY           SKY/WX    TMP DP  RH WIND       PRES   REMARKS
CHATTANOOGA    CLOUDY    30  25  81 S3        30.33R
DAYTON         MOSUNNY   28  28 100 CALM      30.30S FOG
$$

SKY/WX REPORTED AS FAIR MEANS FEW OR NO CLOUDS BELOW
12 THOUSAND FEET.





USA.gov is the U.S. government's official web portal to all federal, state and local government web resources and services.